Regional Weather Roundup
Issued by NWS

Home | Current Version | Previous Version | Graphics & Text | Print | Product List | Glossary On
Versions: 1 2 3 4 5 6 7 8 9 10 11 12 13 14 15 16 17 18 19 20 21 22 23 24 25 26 27 28 29 30 31 32 33 34 35 36 37 38 39 40 41 42 43 44 45 46 47 48 49 50
000
ASUS45 KSLC 230310
RWRUT

UTAH REGIONAL WEATHER ROUNDUP
NATIONAL WEATHER SERVICE SALT LAKE CITY UT
900 PM MDT SAT APR 22 2017

UTZ001>011-023>025-230400-

NORTHERN UTAH

CITY           SKY/WX    TMP DP  RH WIND       PRES   REMARKS
BRIGHAM CITY   MOCLDY    56  30  38 CALM      30.04S
HILL AFB       NOT AVBL
LOGAN          MOCLDY    52  39  61 E5        30.03F
OGDEN          MOCLDY    54  34  46 E5        30.03F
SALT LAKE CITY CLOUDY    56  39  53 N10       30.02F
TOOELE VALLEY  CLOUDY    43  37  81 SE5       30.04S
WENDOVER       CLOUDY    57  29  34 NE3       30.01F
HEBER CITY     MOCLDY    52  27  37 S3        30.05R
WEST JORDAN    CLOUDY    55  42  62 NW5       30.05S

$$

UTZ011>015-024>027-230400-

CENTRAL/NORTHEAST UTAH

CITY           SKY/WX    TMP DP  RH WIND       PRES   REMARKS
PROVO AIRPORT  MOCLDY    54  40  59 N3        30.03F
MOAB/CANYONLAN CLEAR     54  13  19 NW9       30.06R
DELTA          CLOUDY    55  23  28 N3        30.04R
PRICE          PTCLDY    46  19  34 N9        30.10F
ROOSEVELT      CLOUDY    52  28  40 CALM      30.11S
VERNAL         CLOUDY    48  22  35 W5        30.09S

$$

UTZ013>016-019>022-027-230400-

SOUTHERN UTAH

CITY           SKY/WX    TMP DP  RH WIND       PRES   REMARKS
BRYCE CANYON   MOCLDY    46  19  34 SE10      30.17S
CEDAR CITY     MOCLDY    53  31  42 S5        30.04R
MILFORD        MOCLDY    54  29  38 NW5       30.02R
ST GEORGE      MOCLDY    75  25  15 CALM      29.92R
HANKSVILLE     PTCLDY    54  10  17 E3        30.08S
BLANDING       MOCLDY    53  12  20 CALM      30.20R

$$

REGIONAL REPORTS     COLORADO/ARIZONA

CITY           SKY/WX    TMP DP  RH WIND       PRES   REMARKS
CRAIG, CO      CLEAR     44  31  60 CALM      30.12S
GRAND JUNCTION CLOUDY    51  17  26 CALM      30.08R
RIFLE, CO      CLOUDY    50  23  34 SW7       30.11R
MONTROSE, CO   CLOUDY    49  19  30 SE6       30.12R
CORTEZ, CO     CLOUDY    47  23  38 S3        30.13R
COLORADO CITY    N/A     55  30  38 SE6       30.05R
PAGE, AZ       MOCLDY    64  18  17 N3        30.04S
GRAND CANYON   CLEAR     55  23  28 E6        30.13S
KINGMAN, AZ    PTCLDY    70  25  18 CALM      29.94R
FLAGSTAFF, AZ  CLEAR     52  22  30 E3        30.15R

$$

REGIONAL REPORTS    NEVADA/IDAHO/WYOMING

CITY           SKY/WX    TMP DP  RH WIND       PRES   REMARKS
LAS VEGAS, NV  MOCLDY    80  19  10 CALM      29.86R
ELY, NY        CLOUDY    51  30  44 S12       30.04R
ELKO, NV       PTCLDY    58  36  43 E5        29.93F
POCATELLO, ID  CLOUDY    50  30  46 S9        30.02S
BURLEY, ID     CLOUDY    57  24  28 SE10      29.95S
FORT BRIDGER,    N/A     51  22  33 CALM      30.12S
EVANSTON, WY   CLOUDY    45  28  51 W13       30.10R
ROCK SPRINGS,  CLEAR     47  22  37 S7        30.09S
KEMMERER, WY     N/A     46  21  36 CALM      30.11R

$$



USA.gov is the U.S. government's official web portal to all federal, state and local government web resources and services.